This is the latest recevied weather packets stored in our database for station/object TA3HRJ-12. If no packets are shown the sender has not sent any weather packets the latest 10 day(s).
| Time | Temp. | Humidity | Pressure | Rain* | Wind** | Luminosity | Snow |
|---|---|---|---|---|---|---|---|
| 1778045132 | 17.22° C | 38% | 1028.2 hPa | - | - | - | - |
| 1778044232 | 16.11° C | 39% | 1028.1 hPa | - | - | - | - |
| 1778043332 | 15.56° C | 40% | 1027.9 hPa | - | - | - | - |
| 1778042432 | 14.44° C | 44% | 1027.8 hPa | - | - | - | - |
| 1778041532 | 13.33° C | 45% | 1027.7 hPa | - | - | - | - |
| 1778040632 | 13.33° C | 45% | 1027.6 hPa | - | - | - | - |
| 1778039732 | 13.89° C | 45% | 1027.5 hPa | - | - | - | - |
| 1778038832 | 13.33° C | 46% | 1027.3 hPa | - | - | - | - |
| 1778037932 | 13.89° C | 44% | 1027.2 hPa | - | - | - | - |
| 1778037032 | 13.89° C | 44% | 1027 hPa | - | - | - | - |
| 1778036131 | 13.89° C | 44% | 1026.9 hPa | - | - | - | - |
| 1778035231 | 13.33° C | 45% | 1026.8 hPa | - | - | - | - |
| 1778034331 | 13.89° C | 45% | 1026.6 hPa | - | - | - | - |
| 1778033431 | 13.89° C | 45% | 1026.5 hPa | - | - | - | - |
| 1778032531 | 12.78° C | 46% | 1026.5 hPa | - | - | - | - |
| 1778031631 | 13.33° C | 45% | 1026.3 hPa | - | - | - | - |
| 1778030731 | 13.33° C | 46% | 1026.4 hPa | - | - | - | - |
| 1778029831 | 13.89° C | 44% | 1026.4 hPa | - | - | - | - |
| 1778027131 | 15° C | 42% | 1026.3 hPa | - | - | - | - |
| 1778026230 | 14.44° C | 43% | 1026.2 hPa | - | - | - | - |
| 1778025330 | 15° C | 42% | 1026.2 hPa | - | - | - | - |
| 1778024430 | 15° C | 43% | 1026.2 hPa | - | - | - | - |
| 1778023530 | 14.44° C | 43% | 1026.3 hPa | - | - | - | - |
| 1778022630 | 13.89° C | 44% | 1026.2 hPa | - | - | - | - |
| 1778021730 | 14.44° C | 43% | 1026.2 hPa | - | - | - | - |
* Rain since midnight (hover to see other rain measurements)
** Current wind speed in m/s (hover to see current wind gust speed)